CDT,Max TemperatureF,Mean TemperatureF,Min TemperatureF,Max Dew PointF,MeanDew PointF,Min DewpointF,Max Humidity, Mean Humidity, Min Humidity, Max Sea Level PressureIn, Mean Sea Level PressureIn, Min Sea Level PressureIn, Max VisibilityMiles, Mean VisibilityMiles, Min VisibilityMiles, Max Wind SpeedMPH, Mean Wind SpeedMPH, Max Gust SpeedMPH,PrecipitationIn, CloudCover, Events, WindDirDegrees
2012-10-1,66,54,42,54,40,30,94,54,26,30.11,30.05,29.96,10,10,9,22,10,32,0.02,2,,337
2012-10-2,71,50,30,37,29,25,93,50,17,30.05,29.92,29.82,10,10,9,21,5,25,0.00,0,,167
2012-10-3,78,62,46,41,31,23,76,36,17,29.87,29.81,29.72,10,10,5,24,12,34,0.00,0,,145
2012-10-4,48,42,35,39,32,27,93,68,53,30.30,30.16,29.88,10,10,10,31,22,44,0.00,8,,301
2012-10-5,44,36,28,28,23,18,86,60,34,30.30,30.27,30.24,10,10,10,28,11,37,0.00,2,,297
2012-10-6,42,34,26,28,24,18,81,64,42,30.36,30.31,30.27,10,10,10,20,11,23,0.00,4,,338
2012-10-7,55,38,21,25,20,18,93,53,23,30.26,30.05,29.85,10,10,10,17,6,25,0.00,0,,204
2012-10-8,64,50,37,39,31,19,66,46,29,29.85,29.75,29.66,10,10,10,23,10,32,0.00,6,,226
2012-10-9,51,44,37,37,28,21,76,55,42,30.08,29.93,29.79,10,10,10,26,12,33,0.00,7,,296
2012-10-10,60,42,24,32,26,19,93,53,26,30.14,30.02,29.84,10,10,10,17,8,24,0.00,1,,220
2012-10-11,55,40,24,34,27,16,81,59,42,30.42,30.17,29.84,10,10,10,18,12,24,0.00,3,,357
2012-10-12,53,35,17,37,19,10,100,53,21,30.42,30.22,29.93,10,10,10,24,7,38,0.00,2,,157
2012-10-13,66,54,42,50,44,36,87,71,49,29.92,29.75,29.67,10,9,5,20,11,29,0.00,3,,206
2012-10-14,59,47,35,39,33,30,93,61,38,29.98,29.91,29.79,10,10,7,23,10,29,0.00,0,,328
2012-10-15,68,49,30,39,34,25,93,59,32,29.98,29.86,29.68,10,10,10,17,6,23,0.00,0,,157
2012-10-16,71,56,42,46,42,37,81,57,38,29.67,29.52,29.33,10,10,8,13,7,18,0.00,0,,217
2012-10-17,60,50,41,50,41,36,87,74,52,29.45,29.33,29.14,10,10,7,36,17,50,0.01,7,,279
2012-10-18,46,42,39,45,39,36,100,90,81,29.55,29.39,29.28,10,6,2,38,25,45,0.76,8,,301
2012-10-19,42,40,39,39,38,36,100,91,81,29.80,29.72,29.56,10,9,2,33,22,40,0.01,8,,312
2012-10-20,57,45,33,45,40,32,100,84,59,29.79,29.74,29.68,10,8,0,17,6,22,0.00,3,,153
2012-10-21,60,52,44,46,42,39,100,76,55,29.96,29.79,29.66,10,9,4,18,12,24,0.00,1,,76
2012-10-22,57,50,44,48,45,43,100,84,72,29.98,29.92,29.82,10,8,3,16,12,23,0.01,8,,46
2012-10-23,60,53,46,55,52,46,100,93,82,29.83,29.74,29.67,10,4,0,15,6,16,0.00,8,,149
2012-10-24,51,44,37,50,39,30,100,79,54,29.94,29.89,29.85,10,9,2,22,11,91,0.00,6,,349
2012-10-25,37,34,30,34,28,25,100,80,65,30.27,30.05,29.86,10,8,1,25,19,32,0.00,8,,310
2012-10-26,35,32,30,25,23,21,80,68,60,30.42,30.36,30.28,10,10,10,17,11,22,0.00,8,,265
2012-10-27,39,30,21,32,26,19,93,78,61,30.34,30.29,30.22,10,10,4,15,7,18,0.00,4,,158
2012-10-28,46,38,30,34,30,27,93,74,53,30.26,30.20,30.14,10,9,7,14,9,20,0.00,5,,142
2012-10-29,53,45,37,32,30,28,75,61,41,30.16,30.13,30.10,10,10,10,20,14,25,0.00,2,,145
2012-10-30,46,40,35,32,28,25,81,63,46,30.14,30.11,30.07,10,10,10,14,11,20,0.00,7,,128
2012-10-31,59,44,28,37,32,23,93,67,44,30.07,30.02,29.97,10,10,9,9,4,,0.00,1,,195